Cosmos 2058 - Orbit

View from above orbital plane
View from above orbital plane
View from above satellite
View from above satellite

Ground track
Ground track

The orbit data is extracted from the following two-line orbital elements,

1 20465U 90010A   13144.79434455  .00001732  00000-0  16263-3 0  7904
2 20465 082.4938 231.2831 0016136 237.2073 122.7593 14.93318520263426
Epoch (UTC): 24 May 2013 19:03:51
Eccentricity: 0.0016136
inclination: 82.4938°
perigee height: 576 km
apogee height: 599 km
right ascension of ascending node: 231.2831°
argument of perigee: 237.2073°
revolutions per day: 14.93318520
mean anomaly at epoch: 122.7593°
orbit number at epoch: 26342

The dashed part of the orbit path shows where the satellite is in the earth's shadow,  

Developed and maintained by Chris Peat, Heavens-Above GmbH. Please read the updated FAQ before sending e-mail. Imprint. DLR